TimeWET,TemperatureF,Dew PointF,Humidity,Sea Level PressureIn,VisibilityMPH,Wind Direction,Wind SpeedMPH,Gust SpeedMPH,PrecipitationIn,Events,Conditions,WindDirDegrees,DateUTC
12:00 AM,61,56,79,29.75,5,SW,9.2,,,,Mostly Cloudy,230,2012-11-01 00:00:00
12:00 AM,60.8,55.4,82,29.80,5.0,SW,9.2,-,N/A,,Mostly Cloudy,230,2012-11-01 00:00:00
2:00 AM,60.8,59.0,94,29.77,5.0,SW,4.6,-,N/A,,Mostly Cloudy,230,2012-11-01 02:00:00
3:00 AM,63,60,88,29.70,5,WSW,15.0,,,Rain,Light Rain,250,2012-11-01 03:00:00
3:00 AM,62.6,60.8,94,29.74,5.0,WSW,15.0,-,N/A,Rain,Rain,250,2012-11-01 03:00:00
4:00 AM,62.6,60.8,94,29.74,5.0,West,10.4,-,N/A,,Mostly Cloudy,260,2012-11-01 04:00:00
5:00 AM,62.6,59.0,88,29.77,5.0,West,9.2,-,N/A,,Mostly Cloudy,270,2012-11-01 05:00:00
6:00 AM,64,59,79,29.73,5,West,17.3,,,Rain,Light Rain,260,2012-11-01 06:00:00
6:00 AM,64.4,59.0,83,29.77,5.0,West,17.3,-,N/A,,Mostly Cloudy,260,2012-11-01 06:00:00
7:00 AM,64.4,57.2,77,29.80,5.0,West,15.0,-,N/A,,Mostly Cloudy,260,2012-11-01 07:00:00
8:00 AM,66.2,57.2,73,29.80,-9999.0,West,18.4,-,N/A,,Mostly Cloudy,260,2012-11-01 08:00:00
9:00 AM,68,63,78,29.78,5,West,11.5,,,Rain,Light Rain,270,2012-11-01 09:00:00
9:00 AM,68.0,62.6,83,29.83,5.0,West,12.7,-,N/A,Rain,Light Rain,270,2012-11-01 09:00:00
9:19 AM,66.2,62.6,88,29.86,1.0,NW,11.5,-,N/A,Rain,Light Rain,320,2012-11-01 09:19:00
10:00 AM,66.2,62.6,88,29.86,1.0,WNW,11.5,-,N/A,Rain,Rain,290,2012-11-01 10:00:00
10:15 AM,68.0,64.4,88,29.86,3.7,West,16.1,-,N/A,,Mostly Cloudy,260,2012-11-01 10:15:00
10:36 AM,68.0,57.2,68,29.86,5.0,West,21.9,33.4,N/A,,Mostly Cloudy,260,2012-11-01 10:36:00
11:00 AM,71.6,60.8,69,29.89,5.0,West,34.5,48.3,N/A,,Mostly Cloudy,260,2012-11-01 11:00:00
12:00 PM,73,62,60,29.82,5,West,27.6,,,,Partly Cloudy,270,2012-11-01 12:00:00
12:00 PM,73.4,62.6,69,29.89,5.0,West,27.6,-,N/A,,Mostly Cloudy,270,2012-11-01 12:00:00
1:00 PM,71.6,59.0,64,29.89,5.0,West,28.8,-,N/A,,Mostly Cloudy,270,2012-11-01 13:00:00
2:00 PM,68.0,62.6,83,29.92,5.0,West,27.6,42.6,N/A,Rain,Light Rain,260,2012-11-01 14:00:00
3:00 PM,69,64,79,29.87,5,West,20.7,,,Rain,Light Rain,260,2012-11-01 15:00:00
3:00 PM,69.8,64.4,83,29.92,5.0,West,20.7,-,N/A,,Mostly Cloudy,260,2012-11-01 15:00:00
4:00 PM,68.0,59.0,73,29.95,5.0,WNW,19.6,-,N/A,,Mostly Cloudy,290,2012-11-01 16:00:00
4:30 PM,66.2,64.4,94,29.95,-9999.0,NW,8.1,-,N/A,,Clear,310,2012-11-01 16:30:00
5:00 PM,68.0,66.2,94,29.95,5.0,WNW,10.4,-,N/A,,Mostly Cloudy,300,2012-11-01 17:00:00
5:30 PM,66.2,59.0,78,29.98,5.0,Variable,8.1,-,N/A,,Mostly Cloudy,0,2012-11-01 17:30:00
6:00 PM,63,57,76,29.96,3,WNW,13.8,,,Rain,Light Rain,300,2012-11-01 18:00:00
6:00 PM,64.4,59.0,83,29.98,3.1,NW,13.8,-,N/A,,Partly Cloudy,320,2012-11-01 18:00:00
6:30 PM,64.4,57.2,77,30.01,3.1,NW,12.7,-,N/A,,Partly Cloudy,310,2012-11-01 18:30:00
7:00 PM,64.4,59.0,83,30.01,3.1,WNW,8.1,-,N/A,,Partly Cloudy,300,2012-11-01 19:00:00
7:30 PM,62.6,57.2,82,30.04,5.0,NW,6.9,-,N/A,,Partly Cloudy,310,2012-11-01 19:30:00
8:00 PM,64.4,57.2,77,30.04,5.0,WNW,5.8,-,N/A,,Partly Cloudy,290,2012-11-01 20:00:00
8:30 PM,64.4,57.2,77,30.04,6.2,WNW,8.1,-,N/A,,Partly Cloudy,290,2012-11-01 20:30:00
9:00 PM,64,57,73,30.01,5,WNW,6.9,,,,Overcast,290,2012-11-01 21:00:00
9:00 PM,64.4,57.2,77,30.04,6.2,WNW,5.8,-,N/A,,Mostly Cloudy,290,2012-11-01 21:00:00
9:30 PM,64.4,57.2,77,30.04,6.2,West,5.8,-,N/A,,Mostly Cloudy,280,2012-11-01 21:30:00
10:00 PM,64.4,57.2,77,30.04,6.2,West,5.8,-,N/A,,Mostly Cloudy,280,2012-11-01 22:00:00
10:30 PM,64.4,57.2,77,30.06,5.0,West,4.6,-,N/A,,Mostly Cloudy,280,2012-11-01 22:30:00
11:00 PM,64.4,57.2,77,30.06,4.3,West,4.6,-,N/A,,Mostly Cloudy,260,2012-11-01 23:00:00
11:30 PM,64.4,57.2,77,30.06,5.6,West,4.6,-,N/A,,Mostly Cloudy,260,2012-11-01 23:30:00